Wilmington, DE

8:01 PM EST on November 21, 2019 (GMT -0500)
New Castle County

Weather History for KILG - August, 2019

Change the Weather History Date:

Thursday, August 15, 2019

  Actual Average Record
Temperature  
Mean Temperature 77 °F 76 °F  
Max Temperature 85 °F 85 °F 98 °F (1988)
Min Temperature 69 °F 67 °F 48 °F (1964)
Degree Days  
Heating Degree Days 0 0  
Month to date heating degree days 0 0  
Since 1 June heating degree days 5 15  
Since 1 July heating degree days 0 0  
Cooling Degree Days 12 10  
Month to date cooling degree days 191 166  
Year to date cooling degree days 1053 843  
Since 1 June cooling degree days 921 764  
Growing Degree Days 26 (Base 50)    
Moisture  
Dew Point 71 °F    
Average Humidity 81    
Maximum Humidity 100    
Minimum Humidity 61    
Precipitation  
Precipitation 0.00 in 0.10 in 1.66 in (1927)
Month to date precipitation 1.89 1.67  
Year to date precipitation 35.35 27.18  
Snow  
Snow 0.00 in 0.00 in 0.00 in (1894)
Month to date snowfall 0.0 0.0  
Since 1 June snowfall 0.0 0.0  
Since 1 July snowfall 0.0 0.0  
Snow Depth 0.00 in    
Sea Level Pressure  
Sea Level Pressure 29.96 in    
Wind  
Wind Speed 8 mph (NE)    
Max Wind Speed 17 mph    
Max Gust Speed 20 mph    
Visibility 6 miles    
Events Fog    
T = Trace of Precipitation, MM = Missing Value Source: NWS Daily Summary

Daily Weather History Graph

Daily Weather History Graph

Search for Another Location

Airport or City:

Astronomy

Aug. 15, 2019 Rise Set
Actual Time 6:14 AM EDT 7:58 PM EDT
Civil Twilight 5:45 AM EDT 8:27 PM EDT
Nautical Twilight 5:10 AM EDT 9:02 PM EDT
Astronomical Twilight 4:33 AM EDT 9:39 PM EDT
Moon 8:25 PM EDT (8/15) 6:06 AM EDT (8/15)
Length of Visible Light 14h 42m
Length of Day
13h 44m
Full, 100% of the Moon is Illuminated
Aug 15
Full
Aug 23
Last Quarter
Aug 30
New
Sep 5
First Quarter
Sep 14
Full

Hourly Weather History & Observations

Time (EDT) Temp. Heat Index Dew Point Humidity Pressure Visibility Wind Dir Wind Speed Gust Speed Precip Events Conditions
12:27 AM 75.0 °F - 73.9 °F 96% 29.92 in 4.0 mi North 4.6 mph - N/A   Mostly Cloudy
12:38 AM 73.9 °F - 73.0 °F 97% 29.92 in 4.0 mi North 4.6 mph - N/A   Mostly Cloudy
12:51 AM 73.9 °F - 73.0 °F 97% 29.93 in 5.0 mi Calm Calm - N/A   Mostly Cloudy
1:25 AM 73.0 °F - 72.0 °F 96% 29.93 in 4.0 mi NNE 3.5 mph - N/A   Scattered Clouds
1:51 AM 73.0 °F - 72.0 °F 96% 29.94 in 3.0 mi NNW 3.5 mph - N/A   Clear
1:58 AM 72.0 °F - 71.1 °F 97% 29.95 in 1.8 mi NNW 3.5 mph - N/A   Partly Cloudy
2:09 AM 72.0 °F - 71.1 °F 97% 29.94 in 3.0 mi North 4.6 mph - N/A   Scattered Clouds
2:32 AM 71.1 °F - 71.1 °F 100% 29.94 in 2.5 mi NNE 4.6 mph - N/A   Partly Cloudy
2:51 AM 71.1 °F - 71.1 °F 100% 29.94 in 3.0 mi North 4.6 mph - N/A   Clear
3:12 AM 70.0 °F - 70.0 °F 100% 29.94 in 2.0 mi NNW 4.6 mph - N/A   Clear
3:40 AM 71.1 °F - 70.0 °F 96% 29.94 in 1.0 mi Calm Calm - N/A   Clear
3:49 AM 71.6 °F - 71.6 °F 100% 29.94 in 0.8 mi NNW 3.5 mph - N/A   Mist
3:50 AM 71.1 °F - 71.1 °F 100% 29.93 in 0.5 mi NNW 3.5 mph - N/A Fog Fog
4:00 AM 69.1 °F - 69.1 °F 100% 29.93 in 1.2 mi NNW 5.8 mph - N/A   Partly Cloudy
4:09 AM 70.0 °F - 70.0 °F 100% 29.93 in 2.5 mi North 3.5 mph - N/A   Partly Cloudy
4:32 AM 70.0 °F - 70.0 °F 100% 29.93 in - North 4.6 mph - N/A   Unknown
4:41 AM 70.0 °F - 69.1 °F 97% 29.93 in 2.5 mi North 5.8 mph - N/A   Mist
4:51 AM 70.0 °F - 70.0 °F 100% 29.93 in 3.0 mi North 4.6 mph - N/A   Mist
5:32 AM 69.1 °F - 69.1 °F 100% 29.94 in 2.5 mi NNW 3.5 mph - N/A   Clear
5:47 AM 69.8 °F - 69.8 °F 100% 29.95 in 1.5 mi North 4.6 mph - N/A   Scattered Clouds
5:51 AM 70.0 °F - 69.1 °F 97% 29.94 in 2.5 mi North 4.6 mph - N/A   Scattered Clouds
6:00 AM 70.0 °F - 69.1 °F 97% 29.95 in 3.0 mi North 5.8 mph - N/A   Scattered Clouds
6:08 AM 70.0 °F - 69.1 °F 97% 29.95 in 3.0 mi North 4.6 mph - N/A   Mostly Cloudy
6:31 AM 70.0 °F - 70.0 °F 100% 29.96 in 2.0 mi North 4.6 mph - N/A   Overcast
6:51 AM 71.1 °F - 71.1 °F 100% 29.96 in 2.5 mi North 4.6 mph - N/A   Overcast
7:22 AM 72.0 °F - 71.1 °F 97% 29.97 in 3.0 mi NNE 5.8 mph - N/A   Overcast
7:51 AM 73.0 °F - 71.1 °F 93% 29.98 in 4.0 mi NE 8.1 mph - N/A   Partly Cloudy
8:51 AM 75.0 °F - 71.1 °F 87% 29.99 in 8.0 mi ENE 11.5 mph - N/A   Scattered Clouds
9:27 AM 75.0 °F - 71.1 °F 87% 30.01 in 10.0 mi East 8.1 mph - N/A   Mostly Cloudy
9:48 AM 73.4 °F - 71.6 °F 94% 30.01 in 9.0 mi ESE 10.4 mph - N/A   Overcast
9:51 AM 73.9 °F - 71.1 °F 91% 30.01 in 9.0 mi ESE 9.2 mph - N/A   Overcast
10:16 AM 73.9 °F - 71.1 °F 91% 30.02 in 9.0 mi ESE 6.9 mph - N/A   Overcast
10:51 AM 75.9 °F - 70.0 °F 82% 30.01 in 10.0 mi East 8.1 mph - N/A   Mostly Cloudy
11:51 AM 79.0 °F - 71.1 °F 77% 30.01 in 10.0 mi SE 5.8 mph - N/A   Mostly Cloudy
12:07 PM 79.0 °F - 71.1 °F 77% 30.01 in 10.0 mi SSE 6.9 mph - N/A   Mostly Cloudy
12:28 PM 80.1 °F 83.6 °F 71.1 °F 74% 30.01 in 10.0 mi SSW 3.5 mph - N/A   Mostly Cloudy
12:51 PM 82.9 °F 87.5 °F 71.1 °F 67% 30.01 in 10.0 mi ENE 4.6 mph - N/A   Mostly Cloudy
1:31 PM 84.0 °F 89.0 °F 71.1 °F 65% 29.99 in 10.0 mi East 8.1 mph - N/A   Scattered Clouds
1:51 PM 82.9 °F 87.0 °F 70.0 °F 65% 29.98 in 10.0 mi ESE 9.2 mph - N/A   Partly Cloudy
2:51 PM 84.0 °F 87.8 °F 69.1 °F 61% 29.96 in 10.0 mi ESE 8.1 mph - N/A   Clear
4:51 PM 81.0 °F 84.9 °F 71.1 °F 72% 29.95 in 10.0 mi South 12.7 mph - N/A   Partly Cloudy
5:51 PM 81.0 °F 85.2 °F 72.0 °F 74% 29.97 in 10.0 mi South 17.3 mph - N/A   Clear
6:51 PM 80.1 °F 83.6 °F 71.1 °F 74% 29.96 in 10.0 mi SSE 12.7 mph - N/A   Mostly Cloudy
7:22 PM 79.0 °F - 69.1 °F 72% 29.97 in 10.0 mi SE 10.4 mph - N/A   Mostly Cloudy
7:40 PM 78.1 °F - 69.1 °F 74% 29.97 in 10.0 mi SE 6.9 mph - N/A   Mostly Cloudy
7:51 PM 78.1 °F - 69.1 °F 74% 29.96 in 10.0 mi SE 8.1 mph - N/A   Scattered Clouds
8:51 PM 75.9 °F - 69.1 °F 79% 29.99 in 10.0 mi ESE 5.8 mph - N/A   Clear
9:51 PM 75.0 °F - 70.0 °F 84% 29.99 in 10.0 mi East 9.2 mph - N/A   Clear
10:51 PM 73.9 °F - 70.0 °F 87% 30.00 in 10.0 mi ESE 9.2 mph - N/A   Clear
11:51 PM 73.0 °F - 69.1 °F 87% 30.02 in 10.0 mi ESE 5.8 mph - N/A   Clear